CAPE
0 0 109 712 1115 933 1120 1194 1147 1055 697 426 156 21 2 0 0 0 0 1 39 29 27 0 15 0 0 0 0 0 0 0 0 0 0 0 0 0 0 0 0 0 0
0 0 0 122 710 857 583 711 1228 804 580 423 231 97 6 0 0 0 0 0 7 55 58 0 0 0 7 0 0 0 0 0 0 0 0 0 0 0 0 0 0 0 0
0 0 0 0 14 326 813 1011 597 845 914 538 462 298 47 11 3 5 0 0 9 3 52 15 0 0 0 0 0 0 0 0 0 0 0 0 0 0 0 0 0 0 0
0 0 0 0 0 37 258 609 482 499 802 589 490 235 92 45 0 0 4 1 30 73 127 71 3 0 9 14 8 0 0 0 0 0 0 0 0 0 0 0 0 0 0
0 0 21 10 0 0 12 169 795 419 378 509 581 630 250 66 13 5 4 29 20 66 42 26 0 6 24 48 18 8 0 0 0 0 0 0 0 0 0 0 0 0 0
0 10 55 30 0 0 0 0 47 507 359 364 541 306 121 54 39 25 37 191 199 128 114 84 20 0 3 12 11 12 3 14 4 0 0 0 0 0 0 0 0 0 0
0 8 113 86 2 0 0 0 0 4 112 317 140 188 469 463 346 206 132 166 265 202 120 68 26 0 0 0 10 0 2 0 1 27 5 5 11 1 0 0 0 0 0
0 5 120 197 71 6 0 0 0 0 0 18 131 229 207 216 316 192 94 111 121 145 234 225 68 7 5 2 47 53 0 0 0 0 34 91 77 6 0 0 0 0 0
3 8 35 220 229 85 13 2 7 0 0 0 1 36 171 286 218 183 103 117 106 98 218 390 280 45 5 13 62 53 23 37 11 0 0 0 0 0 0 0 0 0 0
0 10 33 70 211 227 82 73 67 7 0 0 0 22 78 144 258 153 108 261 165 102 155 196 154 152 79 9 16 25 32 69 82 3 0 0 0 0 0 0 0 0 0
0 0 0 35 89 335 250 165 91 24 27 28 10 14 50 440 408 173 94 199 239 265 205 108 57 0 0 0 0 1 2 74 128 72 10 0 0 0 0 0 0 0 0
0 0 0 14 40 284 334 254 155 102 59 76 43 25 28 150 6 0 1 12 225 290 315 350 209 0 0 0 0 3 21 56 114 74 52 27 6 0 0 0 0 0 0
14 10 7 26 44 219 305 368 159 122 73 38 25 8 15 15 2 3 1 0 0 0 383 449 22 4 0 0 0 0 4 12 15 35 57 53 55 44 0 0 0 0 0
21 9 17 12 64 136 308 268 154 100 78 53 38 29 0 2 3 0 3 4 2 1 1 1 0 8 0 0 0 0 0 0 13 1 17 6 27 0 0 0 0 0 0
24 22 14 24 109 131 316 170 74 3 0 0 3 1 4 1 4 0 0 4 3 3 4 1 0 0 1 1 1 2 2 2 0 0 6 2 0 0 0 0 0 0 0
19 18 17 30 122 130 221 1 0 0 0 0 0 0 3 0 0 0 0 0 3 1 4 3 2 1 1 2 2 1 1 1 0 0 0 0 0 0 0 0 0 0 0
75 114 89 84 147 121 111 57 99 0 0 0 0 0 0 0 0 0 0 0 0 1 3 3 3 2 2 2 1 1 1 2 1 1 0 0 0 0 0 0 0 0 0
127 23 6 107 165 164 50 6 5 32 56 1 1 0 0 0 0 0 0 0 1 2 4 4 4 3 4 4 3 3 2 3 1 0 0 0 0 0 0 0 1 0 0
93 90 148 198 202 182 192 46 16 12 57 1 1 1 0 0 0 0 0 1 2 5 6 3 3 3 3 3 2 1 1 1 2 2 1 3 2 2 3 2 2 0 1
23 6 0 104 104 3 153 110 21 6 77 7 3 3 2 0 0 0 0 0 0 1 0 2 2 1 5 3 1 2 1 0 1 2 2 1 2 2 3 3 3 4 3
28 12 1 2 105 0 15 35 27 76 41 2 3 0 0 1 0 0 1 2 8 0 0 4 7 2 2 4 4 4 3 6 7 8 4 4 3 4 3 3 4 3 3
15 23 8 10 6 19 16 2 1 140 42 4 1 0 0 4 4 0 0 4 8 11 4 6 6 4 4 4 3 3 2 2 0 0 0 2 3 3 3 3 3 3 2
2 13 17 8 2 6 9 30 73 25 2 5 2 2 3 2 2 1 0 4 3 2 6 2 5 5 3 3 1 1 0 1 2 1 2 5 5 5 3 3 3 4 3
0 2 0 22 3 42 30 6 2 1 4 3 2 1 1 1 0 0 0 2 5 3 5 6 3 3 5 0 0 0 0 0 0 2 3 5 5 4 4 3 4 5 4
7 1 2 39 9 3 3 3 2 1 2 2 2 2 1 0 0 4 9 11 6 4 5 4 3 4 4 4 4 1 0 0 1 0 3 1 4 3 5 4 4 3 5
1 2 1 1 2 2 2 2 2 3 3 2 2 1 1 4 5 4 11 9 13 12 7 3 1 2 2 0 0 0 0 0 0 0 1 3 3 3 3 2 2 3 2
CIN
0 0 -175 -53 -35 -81 -57 -57 -69 -67 -144 -224 -298 -427 -477 0 0 0 0 -52 -62 -74 -82 0 -121 0 0 0 0 0 0 0 0 0 0 0 0 0 0 0 0 0 0
0 0 0 -77 -14 -18 -78 -70 -2 -56 -110 -172 -247 -324 -392 0 0 0 0 0 -45 -59 -53 -31 0 0 -153 0 0 0 0 0 0 0 0 0 0 0 0 0 0 0 0
0 0 0 0 -100 -59 -24 -19 -64 -21 -21 -90 -129 -187 -287 -379 -407 -231 0 0 -138 -74 -67 -98 0 0 0 0 0 0 0 0 0 0 0 0 0 0 0 0 0 0 0
0 0 0 0 -1 -69 -40 -27 -69 -72 -25 -70 -86 -153 -258 -291 0 0 -83 -115 -192 -95 -36 -56 -104 0 -141 -142 -175 0 0 0 0 0 0 0 0 0 0 0 0 0 0
0 0 -89 -84 0 0 -97 -31 -4 -58 -58 -34 -44 -46 -128 -243 -340 -257 -161 -209 -127 -90 -131 -131 -66 -76 -121 -109 -135 -171 0 0 0 0 0 0 0 0 0 0 0 0 0
0 -88 -24 -56 0 0 0 0 -81 -9 -45 -43 -26 -87 -175 -254 -296 -259 -138 -23 -28 -29 -33 -54 -105 0 -114 -137 -145 -144 -96 -78 -60 0 0 0 0 0 0 0 0 0 0
0 -83 -2 -16 -21 0 0 0 -26 -126 -88 -48 -163 -121 -34 -24 -41 -93 -102 -32 -13 -6 -7 -31 -90 -27 0 -6 -136 -10 -208 0 -32 -55 -15 -68 -84 -49 0 0 0 0 0
0 -132 -17 -2 -35 -78 0 0 0 0 -50 -134 -91 -73 -85 -103 -61 -107 -162 -89 -72 -36 -2 -4 -58 -105 -53 -24 -76 -119 0 0 0 0 -81 -32 -38 -133 0 0 0 0 0
-114 -123 -84 -3 -3 -50 -77 -73 -50 0 0 0 -137 -163 -70 -57 -102 -94 -118 -75 -73 -72 -20 0 -3 -32 -22 -43 -65 -50 -83 -92 -187 0 0 0 0 0 0 0 0 0 0
0 -106 -91 -73 -3 -2 -49 -65 -65 -40 0 0 0 -86 -69 -80 -49 -103 -114 -15 -50 -83 -46 -13 -7 -10 -19 -36 -26 -16 -28 -33 -81 -43 0 0 0 0 0 0 0 0 0
0 0 0 -87 -53 -2 -5 -34 -68 -87 -84 -71 -73 -62 -34 -1 -5 -58 -132 -42 -28 -28 -13 -37 -50 0 0 0 0 -1 -7 -13 -57 -72 -157 0 0 0 0 0 0 0 0
-1 0 -2 -56 -45 -3 -2 -26 -64 -82 -87 -69 -59 -53 -34 -21 -139 0 -228 -94 -16 -1 -5 0 -6 -8 0 0 0 -2 -14 -34 -12 -34 -40 -90 -105 0 0 0 0 0 0
-1 -1 -3 -23 -24 -3 -2 -2 -45 -77 -77 -64 -64 -72 -85 -109 0 0 0 0 0 0 -2 0 -54 -99 0 0 0 0 -28 -34 -14 -27 -31 -14 -89 -43 0 0 0 0 0
-2 -2 -2 -2 -4 -2 -2 -2 -39 -44 -63 -60 -65 -89 0 0 0 0 0 0 0 0 0 0 0 -105 0 0 0 0 0 -13 -10 -5 -25 -72 -11 0 0 0 0 0 0
-2 -2 -1 -2 -2 -3 -1 -26 -62 -26 0 0 -57 0 0 0 0 0 0 0 0 0 0 0 0 0 0 0 0 0 0 0 0 -42 -27 -37 0 0 0 0 0 0 0
-1 -1 -3 -2 -4 -2 -2 -3 0 0 0 0 0 0 0 0 0 0 0 0 0 0 0 0 0 0 0 0 0 0 0 0 0 0 0 0 0 0 0 0 0 0 0
-1 -1 -2 -2 -1 -10 -2 -6 -1 0 0 0 0 0 0 0 0 0 0 0 0 0 0 0 0 0 0 0 0 0 0 0 0 0 0 0 0 0 0 0 0 0 0
-3 -28 -2 -2 -1 -2 -22 -5 -3 -7 -10 -1 0 0 0 0 0 0 0 0 0 0 0 0 0 0 0 0 0 0 0 0 0 0 0 0 0 0 0 0 0 0 0
-2 -1 -1 -2 -2 -4 -1 -1 -7 -2 -6 0 0 0 0 0 0 0 0 0 0 0 0 0 0 0 0 0 0 0 0 0 0 0 0 0 0 0 0 0 0 0 0
-3 -11 0 -2 -1 -8 0 0 0 -15 -1 -1 0 0 0 0 0 0 0 0 0 0 0 0 0 -1 0 0 0 0 0 0 -1 -1 -1 -1 -1 0 0 0 0 0 0
-2 0 -1 -25 -1 0 -3 0 -9 -1 -3 0 0 0 0 0 0 0 -1 0 -1 -1 0 -1 -2 -2 0 -1 -1 0 0 0 -1 0 -1 0 0 0 0 0 0 0 0
-1 -2 -3 0 -1 -1 -6 -3 -3 0 -2 0 0 0 0 -1 0 0 0 0 0 0 0 0 0 0 0 0 0 0 -1 0 0 0 -1 0 0 0 0 0 0 0 0
0 0 -1 0 -2 -1 -21 -8 0 -3 0 0 0 0 0 0 0 0 0 0 -1 -1 0 0 0 0 0 0 0 0 0 -1 0 0 0 0 0 0 0 0 0 0 0
0 0 -3 -1 -8 0 0 0 0 0 0 0 0 0 0 0 0 0 0 0 0 0 0 0 0 0 0 0 0 0 0 0 0 0 0 0 0 0 0 0 0 0 0
0 0 -3 0 -4 -1 0 0 0 0 0 0 0 0 0 0 -1 -1 -1 -1 -1 0 0 0 0 0 0 0 0 0 0 0 0 0 0 0 0 0 0 0 0 0 0
0 -2 0 0 0 0 0 0 0 0 0 0 0 0 0 -1 0 -1 -1 0 -1 -1 0 0 -3 -1 -1 0 0 0 0 0 0 0 -1 0 0 0 0 0 0 0 0
Wind_Speed
27 27 27 27 27 26 25 23 20 16 13 16 18 17 19 22 22 24 27 29 32 28 27 24 24 21 19 16 15 14 12 12 12 10 9 10 10 10 12 15 16 19 19
27 28 28 27 26 26 26 26 22 21 23 21 19 21 19 17 15 14 19 23 31 26 26 28 25 19 21 18 16 15 12 11 12 9 8 12 11 9 12 16 17 20 21
29 28 28 28 27 26 26 23 23 26 24 24 22 19 18 15 14 11 9 4 20 29 31 32 29 26 21 18 16 14 12 9 9 8 7 7 6 11 13 16 17 19 19
32 29 28 28 27 26 25 25 24 23 25 20 20 19 19 16 11 12 9 7 9 27 33 29 25 27 23 20 17 16 12 9 8 8 8 6 5 10 15 16 17 18 21
34 33 29 27 27 27 26 26 24 23 24 24 23 21 21 18 14 11 8 8 16 13 20 21 17 24 27 21 19 18 16 12 10 12 12 8 8 8 12 16 19 21 19
35 33 30 30 27 27 28 27 26 24 24 24 25 23 23 24 22 16 15 13 13 14 15 18 17 17 25 24 22 22 18 15 15 13 13 13 10 11 16 19 20 21 22
35 34 31 30 29 28 28 29 29 29 28 28 28 29 31 27 21 16 16 15 19 21 24 23 20 23 21 22 25 22 23 21 20 17 18 17 13 13 19 21 20 21 22
35 34 35 32 30 29 29 29 30 29 31 31 31 30 31 31 29 20 16 16 15 19 17 18 22 25 21 19 24 25 23 23 24 22 22 22 20 19 20 21 22 22 21
35 33 32 31 32 31 30 29 29 30 30 31 32 33 33 34 30 24 21 18 16 18 20 22 20 24 26 23 21 25 23 25 25 24 25 22 20 23 23 21 21 22 24
32 32 32 31 32 30 30 30 29 30 31 31 33 32 33 34 33 32 22 25 20 20 24 25 24 23 25 24 28 26 27 25 26 24 22 22 23 26 26 24 24 24 23
37 35 32 32 32 30 30 29 29 30 31 32 33 34 34 34 33 33 27 27 25 20 20 22 21 19 23 24 25 27 30 25 24 22 21 25 23 27 28 21 21 24 24
38 38 36 33 31 28 27 28 28 30 31 32 33 34 32 31 29 28 29 27 26 25 19 18 21 16 15 20 25 25 21 23 23 22 23 22 19 23 30 24 20 19 23
38 38 36 35 32 27 25 26 28 28 29 31 31 32 32 30 29 29 29 31 31 26 22 20 15 16 13 17 19 23 24 24 24 26 26 29 34 37 31 25 19 19 21
36 36 36 35 33 30 26 24 25 28 29 30 31 32 31 31 28 28 29 28 26 24 23 24 20 13 12 3 9 16 21 27 26 25 27 34 35 30 28 21 25 21 22
31 32 32 32 32 31 27 27 25 25 27 30 30 30 31 31 29 29 29 29 28 25 22 22 22 19 16 11 10 9 29 30 22 27 17 24 21 25 23 21 22 20 22
29 29 28 28 28 26 22 24 24 25 24 25 26 28 28 28 28 27 25 25 24 23 22 21 21 18 15 10 16 18 18 25 24 20 21 18 16 14 16 17 18 18 20
23 27 28 28 29 28 23 27 28 25 23 23 22 23 25 26 27 28 27 27 26 23 19 18 17 15 13 12 10 11 16 12 14 11 6 4 4 7 9 14 17 18 22
24 24 27 28 31 33 36 37 33 30 25 23 21 22 23 25 25 25 26 27 23 18 17 16 15 12 12 12 10 10 7 4 3 3 3 8 10 13 16 17 17 18 20
27 23 26 24 23 28 29 27 35 33 30 24 24 23 22 22 23 23 22 22 22 19 15 14 12 11 10 9 10 10 9 10 10 10 9 7 10 12 13 13 15 17 18
23 25 26 25 22 25 23 25 27 31 27 25 24 24 22 21 20 22 20 20 20 19 14 15 13 10 10 12 12 11 10 11 14 14 11 9 10 12 11 14 17 17 17
22 13 26 25 24 22 20 17 21 24 19 18 19 20 19 17 17 18 19 20 20 19 19 17 12 11 12 12 13 12 12 14 15 15 14 15 15 14 14 15 16 16 16
24 16 15 22 21 19 18 23 22 14 17 16 16 17 16 17 15 15 16 17 19 19 18 19 15 14 14 14 15 16 16 17 19 20 20 18 17 18 17 15 16 16 14
9 17 12 18 18 11 23 23 12 9 10 10 12 13 14 13 14 16 18 17 15 17 18 16 16 15 14 14 16 17 18 19 20 21 20 19 18 18 16 16 15 14 12
18 9 7 12 15 11 7 8 8 7 7 9 9 10 11 13 14 14 15 15 13 12 14 13 13 14 13 14 15 15 17 18 18 18 17 17 17 16 15 14 14 14 14
9 20 27 3 7 9 5 6 6 7 8 8 8 8 10 11 12 13 12 10 7 8 10 10 11 11 12 12 13 14 15 15 16 15 15 16 16 16 15 15 15 16 16
3 7 2 5 4 3 1 4 6 7 9 11 8 9 8 10 10 8 7 8 6 8 8 9 9 10 11 12 13 14 15 15 15 15 15 16 16 17 16 16 15 16 17
Wind_Direction
312 309 309 302 297 293 286 282 279 276 270 279 283 282 284 292 292 280 263 271 272 272 272 273 273 279 287 294 304 308 319 327 328 345 343 330 334 343 346 340 346 345 352
311 310 308 308 306 298 294 288 281 277 281 285 283 286 290 295 313 307 276 254 260 266 268 268 270 273 278 287 294 299 311 323 325 332 338 317 325 348 338 329 340 338 344
306 307 308 307 307 307 300 296 289 284 285 282 282 281 285 293 309 317 325 226 257 260 265 264 267 267 271 280 284 292 300 314 323 330 338 341 7 334 328 325 338 342 353
299 302 305 305 306 307 307 302 296 291 288 284 282 280 284 286 291 311 294 256 251 270 264 266 263 266 266 267 272 277 286 295 305 316 321 341 352 327 320 327 334 343 345
296 293 297 301 303 306 306 305 303 297 290 287 284 282 280 278 281 292 282 253 279 264 267 257 247 265 264 263 265 266 270 272 284 292 302 315 320 332 325 322 327 335 351
291 290 291 291 297 300 300 300 304 303 298 294 288 283 279 279 281 276 272 268 263 258 247 226 246 239 266 261 255 264 258 259 272 282 291 297 306 316 310 310 321 331 336
289 287 288 289 291 294 298 296 297 296 298 292 288 286 282 283 284 273 255 258 276 277 273 267 260 269 261 261 256 251 257 257 269 278 282 290 299 303 300 304 317 324 330
288 288 283 286 290 293 293 296 297 297 293 291 291 291 286 284 284 283 272 266 254 231 239 242 263 270 265 247 250 252 247 254 260 267 276 283 292 294 294 302 312 321 330
289 289 290 291 286 288 290 296 298 299 299 296 292 289 287 286 283 282 277 274 264 266 265 266 262 270 271 260 244 255 250 256 259 259 269 280 286 285 289 301 309 316 321
293 291 291 289 288 290 290 293 298 299 297 298 294 292 290 291 288 281 276 276 275 278 278 275 275 272 271 250 243 251 253 254 255 256 260 271 276 278 281 292 303 308 316
287 288 290 289 287 286 288 292 294 297 297 297 295 294 292 291 292 283 279 277 278 277 278 281 282 272 270 256 247 252 240 246 248 251 262 265 271 273 277 288 298 304 310
288 284 282 285 285 286 286 290 294 295 296 296 295 295 295 295 295 290 280 280 281 280 281 285 290 287 276 264 252 249 240 245 251 251 259 264 267 275 273 285 295 302 309
289 283 281 280 280 281 284 288 290 295 295 297 298 297 295 294 292 291 284 281 278 275 281 287 291 298 300 299 261 254 238 248 254 259 261 269 267 268 273 280 292 303 307
293 288 281 277 276 276 278 284 290 292 293 294 295 295 294 291 291 289 287 282 279 273 275 283 293 293 294 332 294 268 261 248 256 263 268 265 258 266 269 279 287 298 301
301 292 286 278 275 274 273 279 285 292 295 293 292 293 292 289 288 287 285 281 278 276 276 279 289 287 291 293 291 267 255 249 262 262 264 262 262 268 276 280 287 294 300
310 302 293 284 274 275 275 277 282 288 295 298 297 289 288 286 282 285 287 284 282 275 275 278 285 289 293 300 287 282 279 264 267 271 273 272 274 268 279 287 292 296 300
323 310 300 290 274 271 276 277 276 281 288 293 298 299 286 281 280 277 276 276 274 281 278 281 285 292 301 299 313 304 288 296 289 286 268 250 256 276 286 289 293 299 300
328 321 313 296 280 275 267 265 269 273 277 282 291 293 297 286 285 281 273 269 272 283 284 280 284 293 293 295 318 315 333 350 9 356 319 298 301 297 301 296 292 298 304
319 320 309 311 307 287 274 267 257 262 266 277 282 289 297 298 290 286 281 271 268 273 282 282 284 288 292 305 307 321 329 323 315 309 321 328 321 319 316 307 301 302 307
332 309 299 299 311 316 283 266 263 255 262 271 276 281 290 295 299 283 286 278 272 270 288 280 279 284 285 289 300 313 326 319 304 310 329 344 340 330 330 320 309 307 308
337 353 290 291 293 304 298 281 260 255 263 272 279 285 288 296 298 297 286 276 270 269 267 278 280 283 284 292 297 306 310 309 307 316 325 330 334 334 333 327 322 320 316
319 327 325 292 290 301 294 246 256 269 267 275 278 283 287 293 299 304 302 287 277 269 269 265 278 281 285 292 299 299 301 303 306 308 316 326 328 327 325 325 323 323 326
333 296 306 295 285 317 237 245 274 301 301 297 290 288 289 301 304 301 286 295 292 278 272 282 275 282 295 301 302 302 304 307 309 311 320 326 330 330 330 326 321 323 328
339 302 279 288 268 290 330 336 336 319 310 296 297 305 305 299 311 313 299 297 301 298 287 286 290 293 306 305 308 313 316 317 319 326 336 337 341 342 340 335 333 327 325
212 193 173 11 267 256 313 21 6 346 356 347 327 320 314 304 305 304 297 276 317 336 321 297 302 305 325 322 326 329 331 336 336 346 352 350 348 347 344 344 334 328 330
111 30 28 206 222 245 323 4 3 1 11 27 358 346 329 330 343 311 304 273 329 3 5 356 351 355 348 350 347 345 347 350 352 352 356 356 352 350 347 343 344 342 338